Weather History for KABQ - January, 2012

Change the Weather History Date:

Thursday, January 26, 2012

  Actual Average Record
Temperature  
Mean Temperature 44 °F 37 °F  
Max Temperature 53 °F 48 °F 70 °F (1914)
Min Temperature 34 °F 27 °F 3 °F (1937)
Degree Days  
Heating Degree Days 21 28  
Month to date heating degree days 647 750  
Since 1 July heating degree days 2373 2507  
Cooling Degree Days 0 0  
Month to date cooling degree days 0 0  
Year to date cooling degree days 0 0  
Moisture  
Dew Point 23 °F    
Average Humidity 46    
Maximum Humidity 59    
Minimum Humidity 32    
Precipitation  
Precipitation 0.00 in 0.01 in 0.30 in (1916)
Month to date precipitation 0.40 0.31  
Year to date precipitation 0.40 0.31  
Snow  
Snow 0.00 in - - ()
Month to date snowfall 0.5  
Since 1 July snowfall 4.8  
Snow Depth 0.00 in    
Sea Level Pressure  
Sea Level Pressure 30.12 in    
Wind  
Wind Speed 5 mph (East)    
Max Wind Speed 9 mph    
Max Gust Speed 12 mph    
Visibility 10 miles    
Events      
T = Trace of Precipitation, MM = Missing Value Source: NWS Daily Summary

Daily Weather History Graph

Daily Weather History Graph

Search for Another Location

Airport or City:

Trip Planner

Search our weather history database for the weather conditions in past years. The results will help you decide how hot, cold, wet, or windy it might be!

Date:

Astronomy

Jan. 26, 2012 Rise Set
Actual Time 7:09 AM MST 5:28 PM MST
Civil Twilight 6:42 AM MST 5:55 PM MST
Nautical Twilight 6:12 AM MST 6:26 PM MST
Astronomical Twilight 5:42 AM MST 6:56 PM MST
Moon 8:48 AM MST (1/26) 9:12 PM MST (1/26)
Length of Visible Light 11h 12m
Length of Day
10h 19m
Waxing Crescent, 13% of the Moon is Illuminated
Jan 26
Waxing Crescent
Jan 30
First Quarter
Feb 7
Full
Feb 14
Last Quarter
Feb 21
New

Hourly Weather History & Observations

Time (MST) Temp. Windchill Dew Point Humidity Pressure Visibility Wind Dir Wind Speed Gust Speed Precip Events Conditions
12:56 AM 39.9 °F 33.4 °F 21.0 °F 47% 30.16 in 10.0 mi NE 10.4 mph - N/A   Clear
1:56 AM 39.0 °F 34.0 °F 21.0 °F 49% 30.17 in 10.0 mi NE 6.9 mph - N/A   Clear
2:56 AM 39.0 °F 34.0 °F 21.0 °F 49% 30.14 in 10.0 mi North 6.9 mph - N/A   Clear
3:56 AM 37.0 °F 33.3 °F 21.0 °F 52% 30.15 in 10.0 mi NNW 4.6 mph - N/A   Clear
4:56 AM 36.0 °F 29.6 °F 21.0 °F 55% 30.17 in 10.0 mi North 8.1 mph - N/A   Partly Cloudy
5:56 AM 35.1 °F 29.3 °F 21.9 °F 59% 30.22 in 10.0 mi North 6.9 mph - N/A   Partly Cloudy
6:56 AM 35.1 °F 30.1 °F 21.9 °F 59% 30.24 in 10.0 mi NNE 5.8 mph - N/A   Partly Cloudy
7:56 AM 36.0 °F 32.1 °F 21.9 °F 57% 30.23 in 10.0 mi West 4.6 mph - N/A   Scattered Clouds
8:56 AM 39.0 °F - 23.0 °F 53% 30.25 in 10.0 mi Calm Calm - N/A   Partly Cloudy
9:56 AM 42.1 °F 40.2 °F 24.1 °F 49% 30.25 in 10.0 mi NW 3.5 mph - N/A   Partly Cloudy
10:56 AM 44.1 °F 42.5 °F 21.9 °F 42% 30.22 in 10.0 mi South 3.5 mph - N/A   Partly Cloudy
11:56 AM 48.0 °F - 24.1 °F 39% 30.17 in 10.0 mi Variable 3.5 mph - N/A   Scattered Clouds
12:56 PM 50.0 °F - 23.0 °F 35% 30.13 in 10.0 mi Calm Calm - N/A   Scattered Clouds
1:56 PM 50.0 °F - 24.1 °F 36% 30.09 in 10.0 mi SE 3.5 mph - N/A   Mostly Cloudy
2:56 PM 52.0 °F - 24.1 °F 34% 30.06 in 10.0 mi Calm Calm - N/A   Mostly Cloudy
3:56 PM 52.0 °F - 23.0 °F 32% 30.05 in 10.0 mi South 5.8 mph - N/A   Mostly Cloudy
4:56 PM 52.0 °F - 23.0 °F 32% 30.04 in 10.0 mi SSE 8.1 mph - N/A   Mostly Cloudy
5:56 PM 48.0 °F - 25.0 °F 41% 30.03 in 10.0 mi SSE 6.9 mph - N/A   Mostly Cloudy
6:56 PM 44.1 °F 42.5 °F 26.1 °F 49% 30.04 in 10.0 mi SSE 3.5 mph - N/A   Scattered Clouds
7:56 PM 43.0 °F 41.3 °F 25.0 °F 49% 30.04 in 10.0 mi ENE 3.5 mph - N/A   Scattered Clouds
8:56 PM 43.0 °F 40.3 °F 25.0 °F 49% 30.01 in 10.0 mi East 4.6 mph - N/A   Scattered Clouds
9:56 PM 41.0 °F 38.0 °F 25.0 °F 53% 29.99 in 10.0 mi East 4.6 mph - N/A   Scattered Clouds
10:56 PM 37.9 °F 33.5 °F 25.0 °F 60% 29.99 in 10.0 mi SE 5.8 mph - N/A   Scattered Clouds
11:56 PM 37.0 °F 31.0 °F 26.1 °F 65% 29.96 in 10.0 mi SE 8.1 mph - N/A   Partly Cloudy